Regional Weather Roundup
Issued by NWS

Home | Current Version | Previous Version | Graphics & Text | Print | Product List | Glossary Off
Versions: 1 2 3 4 5 6 7 8 9 10 11 12 13 14 15 16 17 18 19 20 21 22 23 24 25 26 27 28 29 30 31 32 33 34 35 36 37 38 39 40 41 42 43 44 45 46 47 48 49 50

000
ASUS43 KMKX 271321
RWRWI

WISCONSIN REGIONAL WEATHER ROUNDUP
NATIONAL WEATHER SERVICE MILWAUKEE/SULLIVAN WI
700 AM CST SAT DEC 27 2014

NOTE: "FAIR" INDICATES FEW OR NO CLOUDS BELOW 12,000 FEET WITH NO
SIGNIFICANT WEATHER AND/OR OBSTRUCTIONS TO VISIBILITY.

WIZ001-002-006>008-014>016-023>028-271400-
NORTHWEST WISCONSIN

CITY           SKY/WX    TMP DP  RH WIND       PRES   REMARKS
SUPERIOR ARPT  CLOUDY    23  18  80 N8        30.06R WCI  14
ASHLAND        LGT SNOW  26  25  96 N12       29.99F FOG     WCI  16
HAYWARD        LGT SNOW  26  23  88 VRB5      29.97S VSB 1   WCI  20
SIREN          LGT SNOW  23  21  92 N9        30.03R WCI  13
CUMBERLAND     LGT SNOW  25  23  93 N15G21    29.96S VSB 3/4 WCI  12
RICE LAKE      LGT SNOW  26  24  91 N8        29.97R VSB 3/4 WCI  18
CHETEK         HVY SNOW  26  25  97 NW9       29.94F VSB 1/4 WCI  17
LADYSMITH      LGT SNOW  29  27  94 N10       29.93R WCI  19
EAU CLAIRE     LGT SNOW  29  26  89 N12       29.90F VSB 1   WCI  19
MENOMONIE      SNOW      28  27  94 NW13G18   29.93S VSB 1/2 WCI  17
NEW RICHMOND   LGT SNOW  24  23  98 N13       29.99S WCI  12
OSCEOLA        LGT SNOW  24  24 100 NW13      30.04S WCI  12
$$

WIZ003>005-009-010-017-018-271400-
NORTH CENTRAL WISCONSIN

CITY           SKY/WX    TMP DP  RH WIND       PRES   REMARKS
MANITOWISH WTR LGT SNOW  27  27 100 N5        29.88F VSB 3/4 WCI  22
ARBOR VITAE    LGT SNOW  32  30  94 N6        29.88S VSB 3/4 WCI  26
WOODRUFF       LGT SNOW  32  30  94 N6        29.88S VSB 3/4 WCI  26
RHINELANDER    SNOW      28  27  96 NE6       29.86R VSB 1/2 WCI  22
EAGLE RIVER    LGT SNOW  28  28 100 NE7       29.85F WCI  21
LAND O LAKES   LGT SNOW  29  28  96 N8        29.87F WCI  21
PHILLIPS       LGT SNOW  28  26  95 N9        29.88R WCI  19
TOMAHAWK       LGT SNOW  29  28  95 CALM      29.88R VSB 3/4
MEDFORD        MIX PCPN  29  28  97 N6        29.83F VSB 1   WCI  23
MERRILL        LGT SNOW  31  31 100 CALM      29.86R VSB 3/4
$$

WIZ029-030-035-036-043>047-271400-
CENTRAL WISCONSIN

CITY           SKY/WX    TMP DP  RH WIND       PRES   REMARKS
WAUSAU         LGT SNOW  32  32 100 NW3       29.84R VSB 3/4
MOSINEE        LGT SNOW  32  32 100 CALM      29.85R VSB 1
MARSHFIELD     LGT SNOW  33  31  92 NE3       29.83F FOG
STEVENS POINT  MIX PCPN  31  31 100 CALM      29.84S
WAUPACA        RAIN      35  34  96 CALM      29.83F
WAUTOMA        LGT RAIN  34  34 100 CALM      29.84S FOG
WISC RAPIDS    LGT RAIN  33  31  92 CALM      29.84F FOG
CAMP DOUGLAS   CLOUDY    32  32 100 E2        29.82F FOG
$$

WIZ011>013-019>022-031-037>040-048>050-271400-
NORTHEAST WISCONSIN

CITY           SKY/WX    TMP DP  RH WIND       PRES   REMARKS
ANTIGO         LGT SNOW  31  31  99 E5        29.83S VSB 1   WCI  26
SHAWANO        RAIN      34  33  96 CALM      29.86F
OCONTO         CLOUDY    34  34 100 NE3       29.86F
STURGEON BAY   CLOUDY    39  36  87 SE6       29.87F VSB 1   WCI  35
GREEN BAY      LGT RAIN  34  34 100 E7        29.85F VSB 3/4 WCI  28
MANITOWOC      LGT RAIN  39  39 100 SE6       29.85F FOG     WCI  35
APPLETON       FOG       34  34 100 E6        29.85R VSB 1/2 WCI  29
CLINTONVILLE   LGT RAIN  32  32 100 E7        29.84F WCI  26
OSHKOSH        FOG       36  35  96 S5        29.82S VSB 3/4 WCI  32
$$

WIZ032>034-041-042-053>061-271400-
SOUTHWEST WISCONSIN

CITY           SKY/WX    TMP DP  RH WIND       PRES   REMARKS
LA CROSSE      CLOUDY    33  31  92 NW14      29.88S WCI  23
SPARTA         LGT RAIN  33  33 100 CALM      29.85F
VIROQUA        CLOUDY    34  34 100 W8        29.83F VSB 1/2 WCI  27
BOSCOBEL       CLOUDY    36  34  92 S6        29.87S FOG     WCI  31
PRAIRIE DU CHI CLOUDY    37  34  88 SW10      29.88R WCI  30
PLATTEVILLE    CLOUDY    39  39  97 SW20G25   29.90R WCI  30
$$

WIZ056-057-062-063-064-067-068-271400-
SOUTH CENTRAL WISCONSIN

CITY           SKY/WX    TMP DP  RH WIND       PRES   REMARKS
REEDSBURG      CLOUDY    33  33  99 CALM      29.84F FOG
BARABOO/DELLS  LGT RAIN  33  32  98 CALM      29.83F
LONE ROCK      CLOUDY    39  34  82 SW3       29.86S HAZE
MINERAL POINT  CLOUDY    41  41 100 SW13G20   29.86R FOG
MADISON        LGT RAIN  45  43  93 S9        29.84S
MIDDLETON      CLOUDY    46  45  97 SW6       29.84F
WATERTOWN      CLOUDY    44  44 100 S9        29.86R
MONROE         RAIN      45  45 100 S16       29.85F VSB 3/4
JANESVILLE     LGT RAIN  46  46 100 S9        29.88R FOG
$$

WIZ051-052-058>065-066-070>072-271400-
SOUTHEAST WISCONSIN

CITY           SKY/WX    TMP DP  RH WIND       PRES   REMARKS
MILWAUKEE      CLOUDY    46  42  86 S12       29.90F
WAUKESHA       CLOUDY    43  43 100 S7        29.89F
MILWAUKEE/TIMM DRIZZLE   45  43  93 S9        29.89S
RACINE         LGT RAIN  47  43  86 S12       29.93S
BURLINGTON     DRIZZLE   44  43  98 S12G17    29.90F
KENOSHA        CLOUDY    46  44  93 S13       29.92S
FOND DU LAC    CLOUDY    42  40  92 S7        29.83F FOG
SHEBOYGAN      CLOUDY    38  37  97 S9        29.86F FOG     WCI  31
WEST BEND      DRIZZLE   43  41  93 S8        29.86F
JUNEAU         CLOUDY    43  42  97 S10       29.86R FOG
$$

LSZ147-162-271400-
LAKE SUPERIOR

STATION/POSITION TIME  TEMP    WIND        PRES    WAVE
                       AIR SEA DIR/SP/G            HT/PER
                 (UTC) (F)     (DEG/KT/KT) (MB)    (FT/S)
DEVILS ISLAND    1300   28      10/ 13/ 14 1017.6R
PORT WING        1240   27     340/  9/ 14 1017.3R
SAXON HARBOR     1220   31      40/ 13/ 22 1015.9R
$$

LMZ867-665-643>646-271400-
LAKE MICHIGAN

STATION/POSITION TIME  TEMP    WIND        PRES    WAVE
                       AIR SEA DIR/SP/G            HT/PER
                 (UTC) (F)     (DEG/KT/KT) (MB)    (FT/S)
CHAMBERS ISLAND  1200   34      30/ 10/ 13 1012.9S
NORTHPORT PIER   1201   35      50/  8/ 11 1012.9F
SISTER BAY       1213          110/  2/  6   N/A
ALGOMA LAKESHORE 1215           80/  9/ 10   N/A
KEWAUNEE LAKESHO 1300   38     160/  3/  5 1010.5F
SHEBOYGAN LAKESH 1300   39 39  180/ 13/ 14 1011.8F
PORT WASHINGTON  1300   40     190/  5/  8 1012.2F
MILWAUKEE LAKESH 1300   45     200/ 10/ 12   N/A
KENOSHA   LAKESH 1300   46     200/  9/ 13 1013.5R
$$

TC  - TEMPERATURE IN CELSIUS
VSB - VISIBILITY IN STATUTE MILES
WCI - WIND CHILL INDEX
HX  - HEAT INDEX




USA.gov is the U.S. government's official web portal to all federal, state and local government web resources and services.